VA5EVR-13 Weather Reports


time (UTC)temp
F
wind
direction
speed
knots
gust
knots
rain 1hr
in
rain 24hr
in
rain mn
in
humidity
%
barometer
mb
20260510193011 69 112 10.4 10.4 0.00 0.00 0.00 37 88.8
20260510192012 69 112 7.8 7.8 0.00 0.00 0.00 37 88.8
20260510191011 69 158 8.7 8.7 0.00 0.00 0.00 37 88.8
20260510190011 68 158 7.8 7.8 0.00 0.00 0.00 38 88.8
20260510185012 68 180 6.1 6.1 0.00 0.00 0.00 38 88.8
20260510184011 67 158 11.3 11.3 0.00 0.00 0.00 38 88.8
20260510183012 67 158 10.4 10.4 0.00 0.00 0.00 38 88.8
20260510182012 67 158 13.0 13.0 0.00 0.00 0.00 38 88.8
20260510181011 66 202 11.3 11.3 0.00 0.00 0.00 38 88.8
20260510180012 66 158 7.0 7.0 0.00 0.00 0.00 38 88.8
20260510175012 65 112 4.3 4.3 0.00 0.00 0.00 39 88.8
20260510174012 65 180 3.5 3.5 0.00 0.00 0.00 39 88.8
20260510172011 64 180 7.0 7.0 0.00 0.00 0.00 40 88.8
20260510171012 63 135 9.6 9.6 0.00 0.00 0.00 40 88.8
20260510170012 62 180 9.6 9.6 0.00 0.00 0.00 40 88.8
20260510165011 62 180 7.0 7.0 0.00 0.00 0.00 41 88.8
20260510164011 61 158 6.1 6.1 0.00 0.00 0.00 42 88.8
20260510163012 61 180 6.1 6.1 0.00 0.00 0.00 42 88.8
20260510162011 61 135 8.7 8.7 0.00 0.00 0.00 43 88.8
20260510161012 61 158 6.1 6.1 0.00 0.00 0.00 44 88.8
20260510160012 61 202 6.1 6.1 0.00 0.00 0.00 44 88.8
20260510155012 61 180 7.8 7.8 0.00 0.00 0.00 45 88.8
20260510154012 61 202 9.6 9.6 0.00 0.00 0.00 45 88.8
20260510153011 62 135 6.1 6.1 0.00 0.00 0.00 45 88.8
20260510152011 62 202 6.1 6.1 0.00 0.00 0.00 46 88.8
20260510151012 62 180 7.0 7.0 0.00 0.00 0.00 46 88.8
20260510150011 62 180 7.8 7.8 0.00 0.00 0.00 45 88.8
20260510145011 62 180 6.1 6.1 0.00 0.00 0.00 45 88.8
20260510144012 62 202 5.2 5.2 0.00 0.00 0.00 45 88.8
20260510143011 61 202 7.0 7.0 0.00 0.00 0.00 44 88.8
20260510142012 60 180 7.0 7.0 0.00 0.00 0.00 44 88.8
20260510141013 59 180 8.7 8.7 0.00 0.00 0.00 45 88.8
20260510140011 58 180 6.1 6.1 0.00 0.00 0.00 47 88.8
20260510135011 56 180 6.1 6.1 0.00 0.00 0.00 47 88.8
20260510134012 54 180 6.1 6.1 0.00 0.00 0.00 50 88.8
20260510133013 52 202 5.2 5.2 0.00 0.00 0.00 52 88.8
20260510132012 49 158 5.2 5.2 0.00 0.00 0.00 53 88.8
20260510131012 46 158 3.5 3.5 0.00 0.00 0.00 54 88.8
20260510130012 43 180 4.3 4.3 0.00 0.00 0.00 57 88.8
20260510125011 39 180 3.5 3.5 0.00 0.00 0.00 59 88.8
20260510124012 36 180 2.6 2.6 0.00 0.00 0.00 61 88.8
20260510123011 34 180 3.5 3.5 0.00 0.00 0.00 62 88.8
20260510122011 32 202 3.5 3.5 0.00 0.00 0.00 65 88.8
20260510121012 30 202 3.5 3.5 0.00 0.00 0.00 67 88.8
20260510120011 29 202 2.6 2.6 0.00 0.00 0.00 71 88.8
20260510115012 29 202 2.6 2.6 0.00 0.00 0.00 72 88.8
20260510114012 29 202 2.6 2.6 0.00 0.00 0.00 74 88.8
20260510113012 30 202 1.7 1.7 0.00 0.00 0.00 75 88.8
20260510111011 31 202 4.3 4.3 0.00 0.00 0.00 73 88.8
20260510110011 31 225 4.3 4.3 0.00 0.00 0.00 73 88.8
20260510104012 32 180 3.5 3.5 0.00 0.00 0.00 72 88.8
20260510103012 32 202 3.5 3.5 0.00 0.00 0.00 72 88.8
20260510102012 32 202 3.5 3.5 0.00 0.00 0.00 72 88.8
20260510101011 32 202 3.5 3.5 0.00 0.00 0.00 70 88.8
20260510100012 32 180 4.3 4.3 0.00 0.00 0.00 70 88.8
20260510094011 33 180 3.5 3.5 0.00 0.00 0.00 68 88.8
20260510093012 33 180 3.5 3.5 0.00 0.00 0.00 68 88.8
20260510092011 33 180 4.3 4.3 0.00 0.00 0.00 67 88.8
20260510091011 33 158 5.2 5.2 0.00 0.00 0.00 67 88.8
20260510085011 33 180 5.2 5.2 0.00 0.00 0.00 67 88.8
20260510084012 33 180 5.2 5.2 0.00 0.00 0.00 67 88.8
20260510082011 32 158 5.2 5.2 0.00 0.00 0.00 67 88.8
20260510081011 32 158 4.3 4.3 0.00 0.00 0.00 68 88.8
20260510080012 31 158 4.3 4.3 0.00 0.00 0.00 67 88.8
20260510075011 31 158 3.5 3.5 0.00 0.00 0.00 67 88.8
20260510073012 31 180 3.5 3.5 0.00 0.00 0.00 66 88.8
20260510072011 31 180 3.5 3.5 0.00 0.00 0.00 66 88.8
20260510071011 31 158 3.5 3.5 0.00 0.00 0.00 66 88.8
20260510070012 31 180 2.6 2.6 0.00 0.00 0.00 65 88.8
20260510065012 32 158 3.5 3.5 0.00 0.00 0.00 65 88.8
20260510064011 33 158 2.6 2.6 0.00 0.00 0.00 64 88.8
20260510063013 34 135 2.6 2.6 0.00 0.00 0.00 63 88.8
20260510062012 36 112 4.3 4.3 0.00 0.00 0.00 63 88.8
20260510061011 36 112 3.5 3.5 0.00 0.00 0.00 61 88.8
20260510060012 36 112 4.3 4.3 0.00 0.00 0.00 61 88.8
20260510055011 37 112 3.5 3.5 0.00 0.00 0.00 60 88.8
20260510054011 36 112 4.3 4.3 0.00 0.00 0.00 60 88.8
20260510053012 36 112 5.2 5.2 0.00 0.00 0.00 60 88.8
20260510052011 34 90 5.2 5.2 0.00 0.00 0.00 61 88.8
20260510050012 31 45 3.5 3.5 0.00 0.00 0.00 63 88.8
20260510045011 31 22 0.0 0.0 0.00 0.00 0.00 59 88.8
20260510044011 31 0 0.0 0.0 0.00 0.00 0.00 58 88.8
20260510043012 32 0 0.0 0.0 0.00 0.00 0.00 58 88.8
20260510042012 32 22 0.0 0.0 0.00 0.00 0.00 58 88.8
20260510041011 33 22 0.0 0.0 0.00 0.00 0.00 56 88.8
20260510040012 34 22 0.0 0.0 0.00 0.00 0.00 56 88.8
20260510035012 34 45 0.0 0.0 0.00 0.00 0.00 56 88.8
20260510034011 35 45 0.0 0.0 0.00 0.00 0.00 56 88.8
20260510033012 36 45 0.0 0.0 0.00 0.00 0.00 55 88.8
20260510032012 38 45 0.0 0.0 0.00 0.00 0.00 55 88.8
20260510031011 40 45 0.0 0.0 0.00 0.00 0.00 53 88.8
20260510030012 43 45 0.0 0.0 0.00 0.00 0.00 52 88.8
20260510024012 47 45 4.3 4.3 0.00 0.00 0.00 49 88.8
20260510023012 49 22 5.2 5.2 0.00 0.00 0.00 46 88.8
20260510022012 50 22 5.2 5.2 0.00 0.00 0.00 45 88.8
20260510021011 51 0 4.3 4.3 0.00 0.00 0.00 44 88.8
20260510020011 53 22 3.5 3.5 0.00 0.00 0.00 42 88.8
20260510015012 54 338 3.5 3.5 0.00 0.00 0.00 40 88.8
20260510014011 54 0 4.3 4.3 0.00 0.00 0.00 40 88.8
20260510013012 55 315 5.2 5.2 0.00 0.00 0.00 40 88.8
20260510012012 57 338 7.8 7.8 0.00 0.00 0.00 40 88.8
20260510011011 58 0 9.6 9.6 0.00 0.00 0.00 39 88.8
20260510010011 58 292 4.3 4.3 0.00 0.00 0.00 39 88.8
20260510005012 59 22 8.7 8.7 0.00 0.00 0.00 39 88.8
20260510004011 58 0 7.0 7.0 0.00 0.00 0.00 39 88.8
20260510003012 58 22 6.1 6.1 0.00 0.00 0.00 39 88.8
20260510002012 59 0 9.6 9.6 0.00 0.00 0.00 39 88.8
20260510001011 59 0 12.2 12.2 0.00 0.00 0.00 37 88.8
20260510000011 58 338 7.8 7.8 0.00 0.00 0.00 37 88.8
20260509235012 57 292 10.4 10.4 0.00 0.00 0.00 38 88.8
20260509234012 56 22 13.9 13.9 0.00 0.00 0.00 39 88.8
20260509232012 57 22 9.6 9.6 0.00 0.00 0.00 38 88.8
20260509231012 57 338 6.1 6.1 0.00 0.00 0.00 38 88.8
20260509225011 57 270 4.3 4.3 0.00 0.00 0.00 37 88.8
20260509224012 56 315 8.7 8.7 0.00 0.00 0.00 37 88.8
20260509223011 56 0 9.6 9.6 0.00 0.00 0.00 38 88.8
20260509221012 57 22 4.3 4.3 0.00 0.00 0.00 37 88.8
20260509220011 57 22 16.5 16.5 0.00 0.00 0.00 37 88.8
20260509215012 58 338 6.1 6.1 0.00 0.00 0.00 36 88.8
20260509214012 58 292 4.3 4.3 0.00 0.00 0.00 37 88.8
20260509213011 57 270 7.8 7.8 0.00 0.00 0.00 36 88.8
20260509212011 57 292 16.5 16.5 0.00 0.00 0.00 37 88.8
20260509211011 57 0 7.8 7.8 0.00 0.00 0.00 37 88.8
20260509210011 56 315 15.6 15.6 0.00 0.00 0.00 38 88.8
20260509205011 56 0 3.5 3.5 0.00 0.00 0.00 38 88.8
20260509203011 56 292 9.6 9.6 0.00 0.00 0.00 38 88.8
20260509202012 56 22 7.0 7.0 0.00 0.00 0.00 39 88.8
20260509201011 56 338 12.2 12.2 0.00 0.00 0.00 39 88.8
20260509200012 56 0 12.2 12.2 0.00 0.00 0.00 40 88.8
20260509195011 56 0 14.8 14.8 0.00 0.00 0.00 38 88.8
20260509194012 55 22 13.9 13.9 0.00 0.00 0.00 39 88.8